Flag for U.S.A. Weather past 2 weeks in Gainesville, Florida, U.S.A.

Now
73 °F

Clear.


Feels Like: 69 °F
Forecast: 71 / 87 °F
Wind: 5 mph from West

Location: Gainesville Regional Airport

Current Time: Jun 30, 2015 at 5:27:57 AM

Latest Report: Jun 30, 2015 at 4:53 AM


Visibility: 8 mi

Pressure: 30.04 "Hg

Humidity: 97%

Dew point: 72 °F

Location of GainesvilleLocation

Historic Weather in Gainesville — Graph

°F

Gainesville temperature yesterday

Maximum temperature yesterday: 85 °F (at 6:53 PM)
Minimum temperature yesterday: 74 °F (at 3:53 AM)
Average temperature yesterday: 77 °F

Past Weeks' High & Low Weather Summary

 TemperatureHumidityPressure
High99 °F (Jun 16, 3:53 PM)97% (Jun 15, 4:53 AM)30.17 "Hg (Jun 15, 4:53 AM)
Low67 °F (Jun 15, 4:53 AM)29% (Jun 15, 4:53 PM)29.96 "Hg (Jun 28, 3:53 AM)
Average81 °F74%30.07 "Hg
* Reported Jun 15 3:53 AM — Jun 30 3:53 AM, Gainesville, Weather by CustomWeather, © 2015

Note: Actual official high and low records may vary slightly from our data, if they occured in-between our weather recording intervals... More about our weather records

Advertising

Gainesville weather history for previous 24 hours

 ConditionsComfort  
Time TempWeatherWind HumidityBarometerVisibility
3:53 AM
Tue, Jun 30
72 °FClear.3 mph97%30.04 "Hg7 mi
2:53 AM72 °FFog.No wind97%30.03 "Hg5 mi
1:53 AM73 °FClear.No wind97%30.05 "Hg7 mi
12:53 AM73 °FFog.No wind97%30.04 "Hg4 mi
12:00 AM74 °FFog.No wind97%30.06 "Hg3 mi
11:01 PM
Mon, Jun 29
74 °FFog.No wind97%30.04 "Hg5 mi
9:53 PM75 °FClear.No wind94%30.03 "Hg9 mi
8:53 PM75 °FPartly sunny.3 mph90%30.03 "Hg10 mi
7:53 PM82 °FScattered clouds.5 mph74%30.01 "Hg10 mi
6:53 PM85 °FSunny.No wind63%30.00 "Hg10 mi
5:53 PM84 °FPassing clouds.5 mph67%30.00 "Hg10 mi
4:53 PM84 °FScattered clouds.5 mph67%30.01 "Hg10 mi
3:53 PM83 °FSunny.9 mph65%30.01 "Hg10 mi
2:53 PM83 °FScattered clouds.13 mph72%30.01 "Hg10 mi
1:53 PM78 °FBroken clouds.6 mph79%30.06 "Hg10 mi
12:53 PM77 °FBroken clouds.14 mph77%30.06 "Hg10 mi
11:53 AM79 °FThundershowers. Partly sunny.7 mph84%30.06 "Hg10 mi
10:53 AM76 °FLight rain. Broken clouds.7 mph94%30.05 "Hg10 mi
9:53 AM74 °FLight rain. Partly sunny.7 mph94%30.06 "Hg8 mi
8:53 AM74 °FLight rain. Scattered clouds.3 mph94%30.04 "Hg10 mi
7:53 AM75 °FThundershowers. Overcast.5 mph94%30.03 "Hg10 mi
6:53 AM74 °FPartly cloudy.3 mph94%30.00 "Hg10 mi
5:53 AM74 °FPassing clouds.No wind91%29.99 "Hg10 mi
Weather by CustomWeather, © 2015

See weather overviewHow to use our weather pages